Regional Weather Roundup
Issued by NWS

Home | Current Version | Previous Version | Text Only | Print | Product List | Glossary On
Versions: 1 2 3 4 5 6 7 8 9 10 11 12 13 14 15 16 17 18 19 20 21 22 23 24 25 26 27 28 29 30 31 32 33 34 35 36 37 38 39 40 41 42 43 44 45 46 47 48 49 50
000
ASUS42 KFFC 240910
RWRGA
WEATHER ROUNDUP FOR GEORGIA
NATIONAL WEATHER SERVICE PEACHTREE CITY GA
500 AM EDT MON JUL 24 2017

NOTE: "FAIR" INDICATES FEW OR NO CLOUDS BELOW 12,000 FEET WITH NO
SIGNIFICANT WEATHER AND/OR OBSTRUCTIONS TO VISIBILITY.

* = USE WITH CAUTION. THE STATIONS MARKED WITH AN ASTERISK MAY NOT
REPORT WEATHER SUCH AS PRECIPITATION, FOG, OR THUNDER AND ARE NOT
QUALITY CONTROLLED BY NWS.

THE REMARK "TC" DENOTES TEMPERATURE READING IN DEGREES CELSIUS.

GAZ001>058-241000-
NORTH GEORGIA

CITY           SKY/WX    TMP DP  RH WIND       PRES   REMARKS
ATLANTA        LGT RAIN  77  73  87 W7        29.93F
ATHENS         CLOUDY    73  73 100 CALM      29.92S
CHAMBLEE       PTCLDY    75  71  87 W5        29.93F
PEACHTREE CITY PTCLDY    74  73  97 W5        29.95S
ROME           CLOUDY    75  75 100 E3        29.93S
WEST ATLANTA   CLOUDY    77  75  93 SW6       29.93S
GAINESVILLE    MOCLDY    73  72  96 SW3       29.97S
CARTERSVILLE   CLOUDY    74  74 100 CALM      29.94S FOG


CITY           SKY/WX    TMP DP  RH WIND       PRES   REMARKS
MARIETTA       CLOUDY    76  73  90 W6        29.93F
CANTON*        LGT RAIN  73  73 100 CALM      29.97R
$$

GAZ059>098-102>109-241000-
CENTRAL GEORGIA

CITY           SKY/WX    TMP DP  RH WIND       PRES   REMARKS
AUGUSTA-BUSH   CLOUDY    76  72  87 CALM      29.90S
AUGUSTA-DANIEL CLOUDY    74  70  87 SW5       29.92S
COLUMBUS       PTCLDY    77  73  87 W3        29.94S
MACON          CLEAR     76  73  91 SW7       29.93S
ROBINS AFB     PTCLDY    77  74  91 CALM      29.93R


CITY           SKY/WX    TMP DP  RH WIND       PRES   REMARKS
LAGRANGE*      CLEAR     75  75  98 CALM      29.95S
SYLVANIA*      CLOUDY    78  76  95 SW3       29.94R
MILLEDGEVILLE* MOCLDY    73  73 100 CALM      29.92S
$$

GAZ099>101-110>166-241000-
SOUTH GEORGIA

CITY           SKY/WX    TMP DP  RH WIND       PRES   REMARKS
SAVANNAH       CLOUDY   N/A N/A N/A SW9       29.95S
VALDOSTA       PTCLDY    74  74 100 SW5       29.98R
ALMA           PTCLDY    77  74  90 SW8       29.96R
ST SIMONS      PTCLDY    78  75  90 SW10      29.98R
FT STEWART     CLOUDY    76  73  90 SW6       29.94R
ALBANY         PTCLDY    76  75  97 SW5       29.97S
HUNTER AFB     PTCLDY    77  74  91 SW9       29.93R
MOODY AFB      PTCLDY    75  73  95 S6        29.96S
BRUNSWICK      CLEAR     77  75  94 SW7       29.98R


CITY           SKY/WX    TMP DP  RH WIND       PRES   REMARKS
BAINBRIDGE*    PTCLDY    77  77 100 CALM      29.97R
MOULTRIE*      PTCLDY    75  73  94 SW3       29.98S
VIDALIA*       CLOUDY    77  75  94 SW5       29.95R
WAYCROSS*      CLEAR     78  78 100 SW6       29.96S
DOUGLAS*       PTCLDY    75  73  94 SW6       29.97S
$$




USA.gov is the U.S. government's official web portal to all federal, state and local government web resources and services.